Location: Gugi
(45.4667°N, 11.1000°E)
Time: 22:16:06
(UTC+00:00)

COSMO-SKYMED 1 - Pass Details

Date: 17 November 2019
Orbit: 621 x 623 km, 97.9° (Epoch: 14 December)

Event Time Altitude Azimuth Distance (km) Brightness Sun altitude
Exits shadow 16:56:49 - 22° (NNE) 2,460 5.3 -12.8°
Reaches altitude 10° 16:58:00 10° 27° (NNE) 2,002 4.8 -13.0°
Maximum altitude 17:02:08 42° 98° (E) 899 2.9 -13.7°
Drops below altitude 10° 17:06:14 10° 170° (S) 1,985 5.2 -14.4°
Sets 17:08:30 0° 177° (S) 2,886 6.1 -14.8°
